Showing default

HULIANWANG DIGUI-159, 68133

Orbit data source: Space-Track

HULIANWANG DIGUI-159, 68133 is a payload satellite owned by Zhongguo Xingwang (CN) in LEO that was launched on Thu, 12 Mar 2026 UTC via a CHANG ZHENG 8A launch vehicle from the Wenchang Satellite Launch Center (WSC). Payload-class satellites include a variety of spacecraft equipped with specific instruments for various scientific and technological missions. These include communications satellites like Starlink; space stations such as the ISS; scientific satellites like the Hubble; Earth observation satellites from companies like Planet Labs, Umbra, and HawkEye 360; GPS; miniature CubeSats for education and research; and military/defense satellites.

Loading next visibility...
Identifier
68133, 2026-047E
Orbit
LEO
Country
Flag of CNCN / PRC
Related business
Manufacturer
CAST?
Mission
Operational spacecraft
Bus & Motor
XINGWANG C, Unknown motor
Mass
~700 kg wet, ~700 kg dry
Launch date (UTC)
2026-03-12 (1 month ago)
Launch vehicle
CHANG ZHENG 8A
Launch site
Wenchang Satellite Launch Center (WSC)
Object type
Payload
Rocket body
Debris
Shape & HBR
Unknown
Radar Cross Section
RCS unknown

Expand to show TLE details & history
Last TLE update: 21 hours ago

TLE from 21 hours ago
0 HULIANWANG DIGUI-159
1 68133U 26047E   26104.69601571 -.00000109  00000-0  33726-4 0  9994
2 68133  50.0051 286.5849 0001180 265.4509  94.6244 13.66797368  4589
Epoch: 2026-04-14T16:42Z
TLE epoch observation values (Epoch: 2026-04-14T16:42:15.757Z)
Latitude
-0.00007°
Longitude
-166.84937°
Altitude
1,011.678 km
Speed
7.347 km/s
True Right ascension
19h 06m 20s
True Declination
0° 00' 00"
Sunlit
Object was in daylight at epoch
Visualization orbit readout
Latitude
Unknown
Longitude
Unknown
Altitude
Unknown
Speed
Unknown
Apparent Right ascension
Unknown
Apparent Declination
Unknown
Sunlit
N/A
Visualization observer readout
Local Sidereal Time
19:47:13
Azimuth
Unknown
Elevation
Unknown
Doppler factor
Unknown
Orbital elements
Apogee altitude
1,012.681 km
Perigee altitude
1,010.937 km
Semi-major axis
7,389.946 km
Eccentricity
0.00012
Inclination
50.0051°
RAAN
286.5849°
Arg. of periapsis
265.4509°
True anomaly
94.63788°
Mean anomaly
94.6244°
Eccentric anomaly
94.63114°
Mean motion
3.4165 °/min
Orbital period
105.37 mins
BSTAR
0.000033726
Loading maneuver chart data...
Computing Atmospheric mass density...
Loading historical data...
Loading historical data...
Loading historical data...
Loading historical data...
Loading historical data...
Loading historical data...
Loading historical data...

Documentation

Showing up to 5 results
|